Weather History for Newport Airport, OR

Change the Weather History Date:

Monday, May 27, 2013

  Actual Average Record
Temperature  
Mean Temperature 52 °F -  
Max Temperature 53 °F 57 °F 73 °F (2003)
Min Temperature 51 °F 48 °F 44 °F (1999)
Degree Days  
Heating Degree Days 13    
Growing Degree Days 2 (Base 50)    
Moisture  
Dew Point 52 °F    
Average Humidity 97    
Maximum Humidity 100    
Minimum Humidity 94    
Precipitation  
Precipitation 0.41 in - - ()
Sea Level Pressure  
Sea Level Pressure 29.86 in    
Wind  
Wind Speed 15 mph (South)    
Max Wind Speed 29 mph    
Max Gust Speed 41 mph    
Visibility 5 miles    
Events Rain    
Averages and records for this station are not official NWS values.
T = Trace of Precipitation, MM = Missing Value Source: NWS Daily Summary

Daily Weather History Graph

Daily Weather History Graph

Search for Another Location

Airport:

Trip Planner

Search our weather history database for the weather conditions in past years. The results will help you decide how hot, cold, wet, or windy it might be!

Date:

Astronomy

May. 27, 2013 Rise Set
Actual Time 5:37 AM PDT 8:50 PM PDT
Civil Twilight 5:01 AM PDT 9:25 PM PDT
Nautical Twilight 4:16 AM PDT 10:11 PM PDT
Astronomical Twilight 3:20 AM PDT 11:08 PM PDT
Moon 11:30 PM PDT (5/27) 8:23 AM PDT (5/27)
Length of Visible Light 16h 23m
Length of Day
15h 13m
Waning Gibbous, 90% of the Moon is Illuminated
May 27
Waning Gibbous
May 31
Last Quarter
Jun 8
New
Jun 16
First Quarter
Jun 23
Full

Hourly Weather History & Observations

Time (PDT) Temp. Dew Point Humidity Pressure Visibility Wind Dir Wind Speed Gust Speed Precip Events Conditions
12:15 AM 51.8 °F 50.0 °F 94% 30.01 in 10.0 mi South 18.4 mph 26.5 mph N/A Rain Rain
12:35 AM 51.8 °F 50.0 °F 94% 30.00 in 7.0 mi South 17.3 mph 28.8 mph N/A   Drizzle
12:55 AM 51.8 °F 50.0 °F 94% 29.99 in 7.0 mi South 9.2 mph 18.4 mph N/A   Drizzle
1:15 AM 51.8 °F 50.0 °F 94% 29.99 in 7.0 mi South 12.7 mph 20.7 mph 0.01 in Rain Rain
1:35 AM 51.8 °F 50.0 °F 94% 29.98 in 7.0 mi SSE 9.2 mph - 0.03 in Rain Rain
1:55 AM 51.8 °F 50.0 °F 94% 29.97 in 7.0 mi SSE 5.8 mph - 0.05 in Rain Light Rain
2:15 AM 51.8 °F 50.0 °F 94% 29.96 in 7.0 mi SE 5.8 mph - 0.02 in Rain Light Rain
2:35 AM 51.8 °F 50.0 °F 94% 29.95 in 7.0 mi SE 5.8 mph - 0.04 in Rain Light Rain
2:55 AM 51.8 °F 50.0 °F 94% 29.93 in 10.0 mi SE 4.6 mph - 0.06 in Rain Light Rain
3:15 AM 51.8 °F 50.0 °F 94% 29.92 in 10.0 mi SSE 5.8 mph - 0.01 in Rain Light Rain
3:35 AM 51.8 °F 50.0 °F 94% 29.90 in 10.0 mi SSE 8.1 mph - 0.03 in Rain Light Rain
3:55 AM 51.8 °F 50.0 °F 94% 29.90 in 7.0 mi SSE 9.2 mph - 0.04 in Rain Light Rain
4:15 AM 51.8 °F 50.0 °F 94% 29.88 in 10.0 mi SSE 5.8 mph - N/A Rain Light Rain
4:35 AM 51.8 °F 50.0 °F 94% 29.87 in 7.0 mi SSE 9.2 mph - 0.03 in Rain Rain
4:55 AM 51.8 °F 50.0 °F 94% 29.86 in 7.0 mi SSE 8.1 mph - 0.06 in Rain Light Rain
5:15 AM 51.8 °F 50.0 °F 94% 29.85 in 7.0 mi South 10.4 mph - 0.02 in Rain Rain
5:35 AM 53.6 °F 51.8 °F 94% 29.84 in 10.0 mi South 16.1 mph 19.6 mph 0.03 in Rain Light Rain
5:55 AM 53.6 °F 51.8 °F 94% 29.83 in 7.0 mi South 13.8 mph 28.8 mph 0.05 in Rain Light Rain
6:15 AM 53.6 °F 51.8 °F 94% 29.83 in 5.0 mi South 20.7 mph 29.9 mph N/A Rain Rain
6:35 AM 53.6 °F 51.8 °F 94% 29.82 in 3.0 mi South 16.1 mph 28.8 mph N/A   Drizzle
6:55 AM 53.6 °F 51.8 °F 94% 29.82 in 2.0 mi South 23.0 mph 35.7 mph N/A   Drizzle
7:15 AM 53.6 °F 51.8 °F 94% 29.81 in 1.8 mi South 24.2 mph 32.2 mph 0.01 in Rain Heavy Rain
7:35 AM 53.6 °F 51.8 °F 94% 29.81 in 2.0 mi South 21.9 mph 34.5 mph 0.02 in Rain Light Rain
7:55 AM 53.6 °F 51.8 °F 94% 29.80 in 3.0 mi South 27.6 mph 34.5 mph 0.04 in Rain Light Rain
8:15 AM 53.6 °F 51.8 °F 94% 29.80 in 2.5 mi South 25.3 mph 36.8 mph 0.01 in Rain Rain
8:35 AM 53.6 °F 51.8 °F 94% 29.80 in 3.0 mi South 25.3 mph 39.1 mph 0.03 in Rain Light Rain
8:55 AM 53.6 °F 53.6 °F 100% 29.79 in 1.8 mi South 25.3 mph 34.5 mph 0.05 in Rain Light Rain
9:15 AM 53.6 °F 53.6 °F 100% 29.78 in 3.0 mi South 24.2 mph 34.5 mph 0.01 in Rain Light Rain
9:35 AM 53.6 °F 53.6 °F 100% 29.78 in 3.0 mi South 26.5 mph 41.4 mph 0.01 in Rain Light Rain
9:55 AM 53.6 °F 53.6 °F 100% 29.78 in 1.5 mi South 24.2 mph 38.0 mph 0.01 in Rain Light Rain
10:15 AM 53.6 °F 53.6 °F 100% 29.78 in 1.5 mi South 27.6 mph 36.8 mph 0.01 in Rain Light Rain
10:35 AM 53.6 °F 53.6 °F 100% 29.78 in 1.5 mi SSW 26.5 mph 34.5 mph 0.01 in Rain Light Rain
10:55 AM 53.6 °F 53.6 °F 100% 29.79 in 1.2 mi South 24.2 mph 34.5 mph 0.01 in Rain Light Rain
11:15 AM 53.6 °F 53.6 °F 100% 29.79 in 1.0 mi SSW 27.6 mph 40.3 mph 0.01 in Rain Light Rain
11:35 AM 53.6 °F 53.6 °F 100% 29.80 in 1.0 mi South 25.3 mph 34.5 mph 0.01 in Rain Light Rain
11:55 AM 53.6 °F 53.6 °F 100% 29.80 in 1.2 mi SSW 26.5 mph 35.7 mph 0.02 in Rain Light Rain
12:15 PM 53.6 °F 53.6 °F 100% 29.80 in 1.0 mi SSW 28.8 mph 34.5 mph 0.01 in Rain Light Rain
12:35 PM 53.6 °F 53.6 °F 100% 29.81 in 1.2 mi SSW 24.2 mph 32.2 mph 0.02 in Rain Rain
12:55 PM 53.6 °F 53.6 °F 100% 29.82 in 3.0 mi SSW 20.7 mph 29.9 mph 0.02 in   Overcast
1:15 PM 53.6 °F 53.6 °F 100% 29.83 in 4.0 mi SSW 21.9 mph 27.6 mph N/A   Overcast
1:35 PM 53.6 °F 53.6 °F 100% 29.83 in 5.0 mi South 18.4 mph 24.2 mph N/A   Overcast
1:55 PM 53.6 °F 53.6 °F 100% 29.83 in 1.8 mi South 18.4 mph 26.5 mph N/A Rain Light Rain
2:15 PM 53.6 °F 53.6 °F 100% 29.83 in 2.0 mi SSW 17.3 mph 24.2 mph N/A   Overcast
2:35 PM 53.6 °F 53.6 °F 100% 29.83 in 4.0 mi SSW 17.3 mph 25.3 mph N/A   Overcast
2:55 PM 53.6 °F 53.6 °F 100% 29.83 in 4.0 mi SSW 13.8 mph 21.9 mph N/A   Overcast
3:15 PM 53.6 °F 53.6 °F 100% - 4.0 mi SSW 12.7 mph 23.0 mph N/A   Overcast
3:35 PM 53.6 °F 53.6 °F 100% 29.84 in 5.0 mi SSW 15.0 mph 19.6 mph N/A   Overcast
3:55 PM 53.6 °F 53.6 °F 100% 29.85 in 7.0 mi SSW 16.1 mph 21.9 mph N/A   Overcast
4:15 PM 53.6 °F 51.8 °F 94% 29.85 in 2.5 mi SSW 12.7 mph - N/A   Light Drizzle
4:35 PM 53.6 °F 51.8 °F 94% 29.86 in 7.0 mi SSW 10.4 mph - N/A   Overcast
4:55 PM 53.6 °F 51.8 °F 94% 29.86 in 5.0 mi SSW 11.5 mph - N/A   Overcast
5:15 PM 51.8 °F 51.8 °F 100% 29.86 in 4.0 mi SSW 11.5 mph - N/A Rain Rain
5:35 PM 53.6 °F 51.8 °F 94% 29.86 in 5.0 mi South 12.7 mph 18.4 mph N/A   Overcast
5:55 PM 53.6 °F 51.8 °F 94% 29.87 in 7.0 mi SSW 12.7 mph - N/A   Overcast
6:15 PM 53.6 °F 51.8 °F 94% 29.86 in 7.0 mi SSW 11.5 mph - N/A   Overcast
6:35 PM 53.6 °F 51.8 °F 94% 29.87 in 10.0 mi SSW 15.0 mph 19.6 mph N/A   Overcast
6:55 PM 53.6 °F 51.8 °F 94% 29.87 in 7.0 mi SSW 13.8 mph 19.6 mph N/A   Overcast
7:15 PM 53.6 °F 51.8 °F 94% 29.87 in 7.0 mi SSW 11.5 mph - N/A   Overcast
7:35 PM 51.8 °F 51.8 °F 100% 29.88 in 2.0 mi SW 12.7 mph - N/A Rain Heavy Rain
7:55 PM 51.8 °F 50.0 °F 94% 29.88 in 7.0 mi SW 10.4 mph - N/A   Overcast
8:15 PM 51.8 °F 50.0 °F 94% 29.88 in 4.0 mi SW 10.4 mph - N/A   Light Drizzle
8:35 PM 51.8 °F 50.0 °F 94% 29.88 in 10.0 mi SSW 10.4 mph - N/A   Overcast
8:55 PM 51.8 °F 50.0 °F 94% 29.88 in 7.0 mi SSW 11.5 mph - N/A   Overcast
9:15 PM 51.8 °F 51.8 °F 100% 29.88 in 7.0 mi SSW 13.8 mph - N/A   Overcast
9:35 PM 51.8 °F 51.8 °F 100% 29.88 in 7.0 mi South 12.7 mph - N/A   Overcast
9:55 PM 51.8 °F 51.8 °F 100% 29.89 in 7.0 mi SSW 11.5 mph - N/A   Overcast
10:15 PM 51.8 °F 51.8 °F 100% 29.89 in 7.0 mi SSW 12.7 mph - N/A   Overcast
10:35 PM 51.8 °F 51.8 °F 100% 29.90 in 7.0 mi SSW 13.8 mph - N/A   Overcast
10:55 PM 51.8 °F 50.0 °F 94% 29.90 in 7.0 mi SSW 13.8 mph - N/A   Overcast
11:15 PM 51.8 °F 50.0 °F 94% 29.90 in 7.0 mi SSW 11.5 mph - N/A   Overcast
11:35 PM 51.8 °F 51.8 °F 100% 29.90 in 7.0 mi SSW 12.7 mph - N/A   Overcast
11:55 PM 51.8 °F 51.8 °F 100% 29.90 in 7.0 mi SSW 11.5 mph - N/A   Overcast